Weather History for Adana, Turkey

Change the Weather History Date:

Thursday, February 14, 2013

  Actual Average Record
Temperature  
Mean Temperature 57 °F -  
Max Temperature 68 °F 62 °F 73 °F (2014)
Min Temperature 46 °F 42 °F 35 °F (2000)
Degree Days  
Heating Degree Days 8    
Growing Degree Days 7 (Base 50)    
Moisture  
Dew Point 38 °F    
Average Humidity 49    
Maximum Humidity 76    
Minimum Humidity 33    
Precipitation  
Precipitation 0.00 in 0.11 in - ()
Sea Level Pressure  
Sea Level Pressure 30.00 in    
Wind  
Wind Speed 9 mph ()    
Max Wind Speed 22 mph    
Max Gust Speed -    
Visibility 4.2 miles    
Events      
Averages and records for this station are not official NWS values.
T = Trace of Precipitation, MM = Missing Value Source: Averaged Metar Reports

Daily Weather History Graph

Daily Weather History Graph

Search for Another Location

Airport:

Trip Planner

Search our weather history database for the weather conditions in past years. The results will help you decide how hot, cold, wet, or windy it might be!

Date:

Astronomy

Feb. 14, 2013 Rise Set
Actual Time 6:28 AM EET 5:17 PM EET
Civil Twilight 6:01 AM EET 5:44 PM EET
Nautical Twilight 5:31 AM EET 6:14 PM EET
Astronomical Twilight 5:01 AM EET 6:45 PM EET
Moon 8:26 AM EET (2/14) 9:51 PM EET (2/14)
Length of Visible Light 11h 42m
Length of Day
10h 49m
Waxing Crescent, 19% of the Moon is Illuminated
Feb 14
Waxing Crescent
Feb 17
First Quarter
Feb 25
Full
Mar 4
Last Quarter
Mar 11
New

Hourly Weather History & Observations

Time (EET) Temp. Windchill Dew Point Humidity Pressure Visibility Wind Dir Wind Speed Gust Speed Precip Events Conditions
12:20 AM 50.0 °F - 39.2 °F 66% 30.12 in 3.1 mi NNE 3.5 mph - N/A   Haze
12:50 AM 48.2 °F - 39.2 °F 71% 30.12 in 3.1 mi Variable 2.3 mph - N/A   Mist
1:20 AM 48.2 °F - 41.0 °F 76% 30.12 in 3.1 mi NNE 4.6 mph - N/A   Mist
1:50 AM 50.0 °F - 39.2 °F 66% 30.12 in 3.1 mi NE 4.6 mph - N/A   Haze
2:20 AM 50.0 °F - 39.2 °F 66% 30.12 in 3.1 mi North 6.9 mph - N/A   Haze
2:50 AM 50.0 °F - 39.2 °F 66% 30.09 in 3.1 mi NNE 6.9 mph - N/A   Haze
3:20 AM 48.2 °F - 37.4 °F 66% 30.09 in 3.1 mi NNE 6.9 mph - N/A   Haze
3:50 AM 51.8 °F - 39.2 °F 62% 30.09 in 3.1 mi NNE 8.1 mph - N/A   Haze
4:20 AM 48.2 °F - 37.4 °F 66% 30.09 in 3.1 mi NNE 6.9 mph - N/A   Haze
4:50 AM 46.4 °F 42.9 °F 37.4 °F 71% 30.09 in 3.1 mi North 6.9 mph - N/A   Haze
5:20 AM 50.0 °F - 37.4 °F 62% 30.06 in 3.1 mi North 8.1 mph - N/A   Haze
5:50 AM 50.0 °F - 37.4 °F 62% 30.06 in 3.1 mi North 6.9 mph - N/A   Haze
6:20 AM 51.8 °F - 35.6 °F 54% 30.06 in 3.1 mi NNE 10.4 mph - N/A   Haze
6:50 AM 51.8 °F - 35.6 °F 54% 30.06 in 3.1 mi NNE 10.4 mph - N/A   Haze
7:20 AM 53.6 °F - 35.6 °F 51% 30.06 in - NNE 10.4 mph - N/A   Clear
7:50 AM 55.4 °F - 35.6 °F 47% 30.06 in - NNE 11.5 mph - N/A   Clear
8:20 AM 55.4 °F - 35.6 °F 47% 30.06 in 6.2 mi NNE 11.5 mph - N/A   Mostly Cloudy
8:50 AM 57.2 °F - 35.6 °F 44% 30.06 in 6.2 mi NNE 12.7 mph - N/A   Mostly Cloudy
9:20 AM 59.0 °F - 37.4 °F 45% 30.06 in 6.2 mi NNE 11.5 mph - N/A   Mostly Cloudy
9:50 AM 60.8 °F - 35.6 °F 39% 30.06 in 6.2 mi NNE 13.8 mph - N/A   Mostly Cloudy
10:20 AM 62.6 °F - 35.6 °F 37% 30.06 in - NNE 15.0 mph - N/A   Clear
10:50 AM 64.4 °F - 37.4 °F 37% 30.06 in - NE 9.2 mph - N/A   Clear
11:20 AM 66.2 °F - 37.4 °F 35% 30.04 in - NE 21.9 mph - N/A   Clear
12:20 PM 66.2 °F - 39.2 °F 37% 30.01 in - NE 18.4 mph - N/A   Clear
12:50 PM 66.2 °F - 39.2 °F 37% 29.98 in - NE 18.4 mph - N/A   Clear
1:20 PM 66.2 °F - 37.4 °F 35% 29.98 in - NE 18.4 mph - N/A   Clear
1:50 PM 68.0 °F - 37.4 °F 33% 29.95 in - NE 16.1 mph - N/A   Clear
2:20 PM 68.0 °F - 37.4 °F 33% 29.95 in - NE 16.1 mph - N/A   Clear
2:50 PM 68.0 °F - 37.4 °F 33% 29.95 in - NE 18.4 mph - N/A   Clear
3:20 PM 68.0 °F - 37.4 °F 33% 29.92 in - NE 15.0 mph - N/A   Clear
3:50 PM 66.2 °F - 39.2 °F 37% 29.92 in - NE 13.8 mph - N/A   Clear
4:20 PM 66.2 °F - 39.2 °F 37% 29.92 in - NNE 13.8 mph - N/A   Clear
4:50 PM 64.4 °F - 39.2 °F 40% 29.92 in - NE 13.8 mph - N/A   Clear
5:20 PM 62.6 °F - 41.0 °F 45% 29.92 in - NE 13.8 mph - N/A   Clear
5:50 PM 60.8 °F - 41.0 °F 48% 29.92 in - NE 11.5 mph - N/A   Clear
6:20 PM 60.8 °F - 41.0 °F 48% 29.92 in - NE 13.8 mph - N/A   Clear
6:50 PM 59.0 °F - 39.2 °F 48% 29.92 in - NE 12.7 mph - N/A   Clear
7:20 PM 59.0 °F - 39.2 °F 48% 29.92 in - NE 12.7 mph - N/A   Clear
7:50 PM 57.2 °F - 39.2 °F 51% 29.92 in - NE 9.2 mph - N/A   Clear
8:20 PM 59.0 °F - 39.2 °F 48% 29.92 in - NNE 10.4 mph - N/A   Clear
8:50 PM 59.0 °F - 39.2 °F 48% 29.95 in - NNE 9.2 mph - N/A   Clear
9:20 PM 59.0 °F - 39.2 °F 48% 29.92 in - NNE 10.4 mph - N/A   Clear
9:50 PM 59.0 °F - 39.2 °F 48% 29.92 in - NNE 13.8 mph - N/A   Clear
10:20 PM 59.0 °F - 39.2 °F 48% 29.92 in 6.2 mi NNE 12.7 mph - N/A   Mostly Cloudy
10:50 PM 59.0 °F - 39.2 °F 48% 29.92 in 6.2 mi NNE 12.7 mph - N/A   Mostly Cloudy
11:20 PM 59.0 °F - 39.2 °F 48% 29.92 in 6.2 mi NE 12.7 mph - N/A   Mostly Cloudy
11:50 PM 57.2 °F - 39.2 °F 51% 29.92 in 6.2 mi NE 12.7 mph - N/A   Mostly Cloudy